• In Hungary
  • List of Countries
  • For 7 days
  • Water Temperature
  • Satellite Maps
  • Weather Map
  • News
  • Weather Widgets
  • user-avatar
    Login

    Hourly Weather Banja Luka

    Today, 27 May, Sunday

    Time Temperature Precipitation Wind Pressure Humidity
    00:00 +14°C° 0 mm 0 mps 718 mmHg 96%
    01:00 +15°C° 0 mm 1 mps 718 mmHg 96%
    02:00 +15°C° 0 mm 1 mps 718 mmHg 96%
    03:00 +15°C° 0 mm 1 mps 718 mmHg 96%
    04:00 +15°C° 0 mm 1 mps 717 mmHg 96%
    05:00 +15°C° 0 mm 0 mps 718 mmHg 92%
    06:00 +17°C° 0 mm 0 mps 718 mmHg 89%
    07:00 +19°C° 0 mm 0 mps 718 mmHg 85%
    08:00 +20°C° 0 mm 0 mps 718 mmHg 76%
    09:00 +24°C° 0 mm 1 mps 719 mmHg 67%
    10:00 +26°C° 0 mm 1 mps 719 mmHg 58%
    11:00 +27°C° 0.2 mm 1 mps 719 mmHg 59%
    12:00 +27°C° 0.2 mm 2 mps 718 mmHg 59%
    13:00 +27°C° 0.2 mm 2 mps 718 mmHg 59%
    14:00 +27°C° 1 mm 2 mps 718 mmHg 64%
    15:00 +26°C° 1 mm 2 mps 717 mmHg 68%
    16:00 +26°C° 1 mm 2 mps 717 mmHg 73%
    17:00 +24°C° 0.9 mm 1 mps 717 mmHg 78%
    18:00 +23°C° 0.9 mm 1 mps 717 mmHg 83%
    19:00 +21°C° 0.9 mm 1 mps 717 mmHg 88%
    20:00 +20°C° 0.2 mm 1 mps 717 mmHg 89%
    21:00 +20°C° 0.2 mm 1 mps 717 mmHg 90%
    22:00 +19°C° 0.2 mm 1 mps 717 mmHg 91%
    23:00 +18°C° 0 mm 1 mps 717 mmHg 91%

    Tomorrow, 28 May, Monday

    Time Temperature Precipitation Wind Pressure Humidity
    00:00 +18°C° 0 mm 1 mps 717 mmHg 91%
    01:00 +16°C° 0 mm 0 mps 717 mmHg 92%
    02:00 +15°C° 0.1 mm 0 mps 717 mmHg 92%
    03:00 +15°C° 0.1 mm 0 mps 717 mmHg 92%
    04:00 +15°C° 0.1 mm 0 mps 717 mmHg 92%
    05:00 +16°C° 0 mm 0 mps 717 mmHg 89%
    06:00 +18°C° 0 mm 0 mps 717 mmHg 85%
    07:00 +20°C° 0 mm 0 mps 718 mmHg 82%
    08:00 +23°C° 0.4 mm 1 mps 718 mmHg 75%
    09:00 +25°C° 0.4 mm 1 mps 718 mmHg 68%
    10:00 +26°C° 0.4 mm 1 mps 718 mmHg 61%
    11:00 +27°C° 0.6 mm 1 mps 718 mmHg 60%
    12:00 +27°C° 0.6 mm 1 mps 718 mmHg 59%
    13:00 +28°C° 0.6 mm 1 mps 718 mmHg 57%
    14:00 +27°C° 0.9 mm 1 mps 718 mmHg 60%
    15:00 +27°C° 0.9 mm 1 mps 717 mmHg 64%
    16:00 +26°C° 0.9 mm 1 mps 717 mmHg 67%
    17:00 +25°C° 0.5 mm 1 mps 717 mmHg 74%
    18:00 +23°C° 0.5 mm 1 mps 717 mmHg 80%
    19:00 +22°C° 0.5 mm 1 mps 716 mmHg 87%
    20:00 +21°C° 0.4 mm 1 mps 716 mmHg 88%
    21:00 +20°C° 0.4 mm 1 mps 717 mmHg 90%
    22:00 +19°C° 0.4 mm 1 mps 717 mmHg 92%
    23:00 +19°C° 0 mm 1 mps 716 mmHg 92%

    Day after tomorrow, 29 May, Tuesday

    Time Temperature Precipitation Wind Pressure Humidity
    00:00 +18°C° 0 mm 1 mps 716 mmHg 92%
    01:00 +18°C° 0 mm 1 mps 716 mmHg 92%
    02:00 +18°C° 0.1 mm 1 mps 716 mmHg 91%
    03:00 +18°C° 0.1 mm 1 mps 716 mmHg 91%
    04:00 +16°C° 0.1 mm 0 mps 716 mmHg 91%
    05:00 +17°C° 0 mm 0 mps 716 mmHg 88%
    06:00 +19°C° 0 mm 0 mps 716 mmHg 84%
    07:00 +20°C° 0 mm 0 mps 716 mmHg 80%
    08:00 +22°C° 0 mm 0 mps 716 mmHg 72%
    09:00 +26°C° 0 mm 1 mps 716 mmHg 65%
    10:00 +27°C° 0 mm 1 mps 717 mmHg 58%
    11:00 +27°C° 0.8 mm 1 mps 716 mmHg 60%
    12:00 +27°C° 0.8 mm 2 mps 716 mmHg 63%
    13:00 +28°C° 0.8 mm 2 mps 716 mmHg 65%
    14:00 +27°C° 1.7 mm 2 mps 716 mmHg 69%
    15:00 +26°C° 1.7 mm 1 mps 715 mmHg 72%
    16:00 +25°C° 1.7 mm 1 mps 715 mmHg 76%
    17:00 +24°C° 0.6 mm 1 mps 715 mmHg 80%
    18:00 +23°C° 0.6 mm 1 mps 714 mmHg 84%
    19:00 +21°C° 0.6 mm 1 mps 714 mmHg 88%
    20:00 +20°C° 0 mm 1 mps 714 mmHg 89%
    21:00 +20°C° 0 mm 1 mps 714 mmHg 89%
    22:00 +19°C° 0 mm 1 mps 714 mmHg 90%
    23:00 +18°C° 0 mm 1 mps 714 mmHg 90%

    30 May, Wednesday

    Time Temperature Precipitation Wind Pressure Humidity
    00:00 +18°C° 0 mm 1 mps 714 mmHg 90%
    01:00 +18°C° 0 mm 1 mps 714 mmHg 90%
    02:00 +16°C° 0 mm 1 mps 714 mmHg 90%
    03:00 +16°C° 0 mm 1 mps 713 mmHg 91%
    04:00 +16°C° 0 mm 1 mps 713 mmHg 91%
    05:00 +19°C° 0 mm 1 mps 713 mmHg 87%
    06:00 +18°C° 0 mm 0 mps 714 mmHg 82%
    07:00 +20°C° 0 mm 0 mps 714 mmHg 78%
    08:00 +24°C° 0.6 mm 1 mps 714 mmHg 72%
    09:00 +26°C° 0.6 mm 1 mps 714 mmHg 65%
    10:00 +27°C° 0.6 mm 1 mps 715 mmHg 58%
    11:00 +27°C° 1.8 mm 1 mps 714 mmHg 62%
    12:00 +27°C° 1.8 mm 1 mps 714 mmHg 67%
    13:00 +26°C° 1.8 mm 1 mps 714 mmHg 71%
    14:00 +26°C° 0.7 mm 1 mps 714 mmHg 71%
    15:00 +26°C° 0.7 mm 1 mps 713 mmHg 71%
    16:00 +24°C° 0.7 mm 0 mps 713 mmHg 71%
    17:00 +24°C° 0.4 mm 1 mps 713 mmHg 76%
    18:00 +23°C° 0.4 mm 1 mps 713 mmHg 80%
    19:00 +22°C° 0.4 mm 1 mps 713 mmHg 85%
    20:00 +21°C° 0.7 mm 1 mps 713 mmHg 87%
    21:00 +20°C° 0.7 mm 1 mps 713 mmHg 89%
    22:00 +19°C° 0.7 mm 1 mps 713 mmHg 91%
    23:00 +19°C° 0.3 mm 1 mps 713 mmHg 91%

    31 May, Thursday

    Time Temperature Precipitation Wind Pressure Humidity
    00:00 +18°C° 0.3 mm 1 mps 713 mmHg 92%
    01:00 +18°C° 0.3 mm 1 mps 713 mmHg 92%
    02:00 +18°C° 0.4 mm 1 mps 712 mmHg 92%
    03:00 +18°C° 0.4 mm 1 mps 712 mmHg 92%
    04:00 +16°C° 0.4 mm 1 mps 712 mmHg 92%
    05:00 +19°C° 0.1 mm 1 mps 712 mmHg 88%
    06:00 +21°C° 0.1 mm 1 mps 713 mmHg 84%
    07:00 +20°C° 0.1 mm 0 mps 713 mmHg 79%
    08:00 +24°C° 0.3 mm 1 mps 713 mmHg 71%
    09:00 +26°C° 0.3 mm 1 mps 713 mmHg 63%
    10:00 +27°C° 0.3 mm 1 mps 714 mmHg 55%
    11:00 +27°C° 1 mm 1 mps 713 mmHg 57%
    12:00 +27°C° 1 mm 2 mps 713 mmHg 60%
    13:00 +28°C° 1 mm 2 mps 713 mmHg 62%
    14:00 +27°C° 1 mm 1 mps 713 mmHg 64%
    15:00 +27°C° 1 mm 1 mps 713 mmHg 66%
    16:00 +26°C° 1 mm 1 mps 713 mmHg 68%
    17:00 +25°C° 0.8 mm 1 mps 713 mmHg 73%
    18:00 +23°C° 0.8 mm 1 mps 712 mmHg 78%
    19:00 +22°C° 0.8 mm 1 mps 712 mmHg 84%
    20:00 +21°C° 0.4 mm 1 mps 712 mmHg 85%
    21:00 +20°C° 0.4 mm 1 mps 712 mmHg 87%
    22:00 +19°C° 0.4 mm 1 mps 712 mmHg 89%
    23:00 +19°C° 0.1 mm 1 mps 712 mmHg 90%

    1 June, Friday

    Time Temperature Precipitation Wind Pressure Humidity
    00:00 +18°C° 0.1 mm 1 mps 712 mmHg 91%
    01:00 +18°C° 0.1 mm 1 mps 712 mmHg 92%
    02:00 +16°C° 0 mm 1 mps 712 mmHg 92%
    03:00 +16°C° 0 mm 1 mps 712 mmHg 92%
    04:00 +16°C° 0 mm 1 mps 712 mmHg 92%
    05:00 +19°C° 0 mm 1 mps 713 mmHg 87%
    06:00 +20°C° 0 mm 1 mps 713 mmHg 82%
    07:00 +22°C° 0 mm 1 mps 714 mmHg 77%
    08:00 +24°C° 0 mm 1 mps 714 mmHg 69%
    09:00 +25°C° 0 mm 1 mps 714 mmHg 62%
    10:00 +27°C° 0 mm 2 mps 714 mmHg 54%
    11:00 +27°C° 0.6 mm 2 mps 714 mmHg 58%
    12:00 +27°C° 0.6 mm 2 mps 714 mmHg 62%
    13:00 +27°C° 0.6 mm 2 mps 714 mmHg 66%
    14:00 +26°C° 1.3 mm 2 mps 714 mmHg 69%
    15:00 +26°C° 1.3 mm 2 mps 714 mmHg 71%
    16:00 +25°C° 1.3 mm 1 mps 713 mmHg 74%
    17:00 +24°C° 0.8 mm 1 mps 713 mmHg 79%
    18:00 +23°C° 0.8 mm 1 mps 713 mmHg 84%
    19:00 +21°C° 0.8 mm 1 mps 713 mmHg 88%
    20:00 +18°C° 0.3 mm 0 mps 713 mmHg 90%
    21:00 +17°C° 0.3 mm 0 mps 713 mmHg 92%
    22:00 +17°C° 0.3 mm 0 mps 714 mmHg 93%
    23:00 +16°C° 0.1 mm 0 mps 714 mmHg 94%
    Show more